Theta_e
317 317 317 316 316 317 315 312 313 313 313 313 313 313 313 313 315 320 323 327 332 332 333 330 332 334 335 336 342 344 344 349 349 353 352 352 354 352 354 356 355 353 352 352 352
317 317 316 316 316 317 315 313 312 313 313 313 313 313 313 314 319 322 325 324 328 329 330 330 333 331 333 332 340 343 344 344 343 349 349 353 352 353 358 357 357 355 353 353 352
316 316 316 316 316 317 316 312 312 313 313 313 313 313 313 314 323 323 327 327 324 325 326 328 330 331 335 333 336 342 345 342 342 346 347 351 350 350 357 358 356 358 356 353 352
316 316 316 315 315 316 315 312 312 313 313 313 313 313 313 320 323 325 325 330 327 325 328 330 332 337 337 337 333 338 340 340 346 348 347 348 349 356 354 355 353 353 352 351 352
315 315 315 315 316 315 315 312 312 313 313 313 313 313 316 321 324 324 326 326 332 332 331 333 336 336 338 336 333 336 337 340 345 347 346 346 351 355 356 353 351 352 351 351 351
315 314 315 316 316 315 315 312 312 312 312 313 313 313 322 320 322 324 324 324 326 329 331 333 337 335 336 335 334 334 335 339 347 347 347 349 347 349 356 352 353 353 353 352 351
315 316 316 315 315 314 314 311 312 312 312 312 313 316 319 318 322 322 322 324 325 326 330 331 333 334 334 335 332 333 337 337 347 348 348 346 347 349 355 353 355 354 354 352 352
315 315 315 315 315 314 313 311 312 312 312 312 313 317 315 316 319 321 323 325 324 325 327 328 331 333 332 332 333 334 337 341 337 348 347 346 346 348 355 356 356 355 354 354 353
315 315 315 315 314 314 312 311 312 312 312 313 317 317 316 318 323 323 324 325 325 326 328 329 330 331 332 335 336 336 337 339 339 344 348 347 346 342 355 356 357 356 354 354 353
314 314 314 314 314 314 311 311 312 313 314 315 320 322 318 322 322 323 324 325 326 329 331 332 332 335 333 336 339 338 336 335 337 340 347 348 346 350 354 355 357 356 355 355 354
314 314 314 314 314 313 312 312 313 313 318 313 313 317 323 320 320 322 324 325 327 332 341 330 336 337 335 334 333 333 334 335 333 335 344 347 346 338 350 355 356 355 356 355 354
314 313 314 314 315 312 311 313 310 315 318 315 315 315 315 317 319 323 323 327 330 337 332 335 337 333 332 332 332 333 331 332 331 335 339 338 343 342 347 353 354 355 353 353 351
313 313 314 314 312 311 310 313 314 315 318 318 317 317 317 317 319 323 324 327 330 333 335 338 335 331 333 333 332 331 331 331 333 330 330 334 337 342 342 349 353 353 353 352 351
313 313 313 316 311 311 313 314 317 315 321 322 322 321 317 320 321 321 324 327 328 335 334 336 332 331 330 331 331 332 328 329 329 331 333 332 332 342 342 343 345 349 350 352 351
313 313 313 314 311 314 314 316 314 314 321 318 320 316 316 321 322 322 322 326 330 332 334 336 333 331 333 330 328 331 329 329 329 330 331 337 335 339 343 347 352 354 354 348 350
313 312 311 313 312 314 316 316 314 325 324 323 320 318 319 320 320 320 324 324 326 330 330 333 326 328 331 327 327 326 329 330 332 332 334 339 339 343 346 346 344 348 351 351 349
314 314 312 313 314 314 315 316 326 326 326 324 321 320 322 321 321 322 323 326 331 335 334 332 333 328 326 330 326 328 330 333 332 335 336 340 342 343 344 342 342 346 350 352 350
314 316 315 316 313 315 315 325 327 323 328 324 318 320 324 321 321 320 323 324 324 330 332 334 336 328 327 330 332 328 330 332 333 333 334 341 346 345 344 346 346 347 352 351 352
314 315 315 315 314 314 323 326 321 326 328 331 318 323 322 320 321 322 322 325 325 325 333 331 331 324 325 325 327 328 331 327 333 337 342 344 344 342 342 347 347 353 354 353 352
315 315 317 318 314 315 326 325 325 325 329 328 322 321 323 321 322 322 322 322 323 323 326 327 331 324 326 325 325 327 325 331 335 342 340 346 348 344 347 347 349 352 354 352 350
316 324 316 315 314 321 329 329 328 327 328 324 326 320 321 321 321 323 323 322 323 322 324 324 327 329 331 334 329 328 332 333 336 340 338 338 342 341 344 345 348 350 355 348 346
314 327 314 312 321 319 326 327 323 326 324 323 323 324 322 321 323 324 324 325 322 324 326 324 326 331 333 331 329 333 336 337 338 345 345 343 341 338 341 341 343 348 352 345 347
320 322 314 311 325 324 322 324 325 324 323 323 327 325 323 323 325 324 323 321 321 325 327 325 329 332 338 336 334 340 335 333 334 339 348 343 340 340 345 346 346 347 349 347 348
320 323 318 315 315 322 324 325 325 323 324 325 326 325 322 322 321 324 324 325 321 326 336 329 326 331 331 337 338 341 337 334 336 340 341 342 340 346 349 352 346 350 350 351 352
320 331 321 319 320 321 322 322 323 323 324 324 327 328 328 328 326 325 327 331 329 338 326 329 334 336 336 335 336 336 337 338 340 339 341 339 340 345 345 351 354 351 341 336 334
328 332 329 331 332 324 323 328 327 327 326 328 327 331 330 333 331 330 330 333 332 330 330 329 338 336 336 335 337 339 338 338 339 337 339 340 346 336 340 338 336 334 335 335 335
314 318 326 328 336 336 336 333 334 335 335 328 330 332 333 332 329 330 330 331 333 333 334 334 334 337 337 333 334 336 339 339 338 337 339 345 342 334 335 333 334 335 335 335 334
Wind_Speed
15 16 16 15 15 14 13 11 10 10 10 11 13 14 16 19 17 11 6 6 2 6 7 6 5 3 3 2 1 1 2 2 1 2 3 6 3 4 5 10 4 4 5 16 23
15 16 16 16 15 15 13 11 10 10 9 10 13 14 15 17 13 9 6 11 10 6 6 4 8 6 3 2 2 1 1 3 1 4 2 6 3 8 5 8 5 13 18 26 23
16 16 16 16 15 15 14 11 9 9 9 9 12 14 15 12 3 2 8 7 16 12 9 1 2 3 1 1 3 3 3 3 0 5 3 6 4 3 8 5 6 15 19 21 22
16 16 17 16 16 15 14 11 8 8 8 9 11 13 12 4 4 1 12 6 9 9 4 3 1 4 2 3 2 3 9 7 3 5 5 6 8 4 1 4 10 19 21 20 18
17 17 17 17 16 15 13 10 7 7 7 7 9 11 3 1 6 6 3 5 10 11 6 3 2 1 4 3 2 5 4 4 4 6 7 8 4 5 5 12 19 19 17 18 16
18 18 18 17 17 15 13 9 5 5 5 6 7 8 1 4 4 6 5 2 5 7 7 7 5 4 5 3 2 4 5 1 6 5 4 7 4 4 5 15 17 21 17 16 17
18 18 18 18 17 16 12 7 3 3 4 4 5 5 2 11 5 7 14 6 7 8 5 7 5 4 1 2 3 4 1 1 5 6 4 5 4 3 15 16 17 16 17 16 15
19 19 19 19 18 15 9 3 2 2 3 3 3 2 6 3 7 14 10 3 5 7 6 2 4 2 1 4 3 3 1 3 2 7 1 5 3 7 17 17 16 16 15 15 17
19 20 20 20 18 13 6 1 2 2 2 1 1 1 7 6 5 3 7 3 4 3 2 4 2 3 1 2 2 5 1 3 4 9 6 8 4 5 15 15 15 15 15 15 14
20 20 20 20 18 10 2 3 3 1 1 1 2 4 5 1 4 3 3 4 2 4 5 1 3 1 1 4 2 1 4 3 6 2 6 8 11 5 12 14 13 14 14 14 14
21 20 20 19 16 6 4 3 1 2 2 6 2 3 4 12 1 3 3 5 2 2 7 3 3 2 3 1 3 3 3 6 6 4 8 10 9 2 8 12 12 13 14 14 16
23 23 22 20 15 3 3 2 2 2 5 9 9 7 7 2 3 2 5 4 3 6 5 4 5 1 3 3 6 5 4 0 2 5 6 2 4 4 1 9 15 14 14 15 10
23 23 22 19 9 2 4 4 2 2 3 3 5 5 5 7 3 4 8 5 3 6 8 11 5 4 2 3 5 4 2 1 3 5 6 1 2 4 1 2 8 11 13 13 8
25 25 22 14 2 1 4 5 6 7 3 3 5 4 6 3 3 5 7 4 3 9 8 5 0 1 2 4 4 1 3 2 3 4 1 2 4 4 4 7 2 7 11 13 10
29 25 19 8 3 3 3 4 8 3 3 4 4 2 2 6 5 4 3 4 6 7 7 6 5 2 6 3 3 3 3 2 2 3 4 3 3 3 4 5 5 6 6 5 6
33 26 17 7 7 4 7 2 3 3 4 4 5 7 8 3 2 3 5 3 3 5 3 5 1 2 2 3 2 7 3 4 3 1 2 2 4 2 0 1 3 4 5 5 10
35 23 9 8 2 8 4 4 3 4 1 5 4 7 9 6 4 6 10 8 8 11 9 4 10 4 3 6 5 3 3 3 2 3 2 0 3 3 1 3 3 5 1 5 8
30 15 5 13 9 5 5 3 4 2 4 2 3 6 11 8 4 3 7 8 4 5 8 9 10 7 6 3 2 3 4 4 4 4 1 2 3 1 1 1 1 1 2 4 8
20 4 3 1 13 6 3 4 3 4 2 2 4 12 7 5 3 4 6 12 9 7 6 8 5 3 3 2 2 5 4 2 5 1 2 0 3 8 6 4 2 3 5 4 4
10 3 1 3 16 3 3 4 3 3 4 1 5 5 14 8 8 11 8 7 9 11 4 5 2 3 4 2 9 3 8 3 1 3 3 2 4 4 4 7 5 5 7 6 5
2 1 8 5 13 1 6 5 4 5 4 3 1 5 7 8 11 8 11 4 16 10 6 5 1 4 3 3 4 5 4 5 4 2 2 3 2 1 7 8 5 6 8 7 4
3 2 4 10 4 1 6 5 1 4 4 8 3 8 9 10 8 8 11 7 11 14 10 5 2 2 3 2 1 1 3 4 3 4 1 2 2 4 7 5 2 5 11 6 5
2 1 6 3 4 3 2 3 4 7 6 4 4 8 5 8 6 7 8 4 14 12 12 10 3 4 5 3 3 2 3 3 6 2 5 4 1 4 5 5 6 6 10 10 6
2 3 2 1 1 2 4 4 4 4 9 8 5 5 6 6 4 9 7 3 9 7 7 8 3 2 7 2 3 5 4 2 1 3 3 6 2 4 8 8 3 8 10 11 10
2 0 2 5 5 3 1 2 10 7 5 5 4 10 7 5 5 5 4 6 6 7 5 4 4 3 5 3 4 4 4 3 3 1 5 4 3 5 6 6 8 11 13 14 12
2 2 2 1 2 6 5 3 5 5 5 3 4 4 11 7 10 9 9 5 4 3 5 1 4 7 5 4 5 5 4 4 4 2 2 2 3 4 8 10 11 11 11 13 11
4 2 2 2 3 4 3 5 5 3 7 13 12 8 6 13 5 5 6 9 10 11 6 4 8 4 4 3 3 3 3 2 1 1 2 5 5 9 10 11 10 9 11 11 10
Wind_Direction
349 346 345 343 340 336 324 312 305 303 311 319 325 330 333 331 328 309 268 244 288 231 253 324 332 59 83 43 291 265 341 327 40 171 315 135 112 117 84 126 75 29 126 138 151
348 346 344 342 339 335 326 314 302 299 309 317 325 332 336 335 323 266 290 239 230 242 257 324 329 357 41 53 145 148 268 246 145 188 242 126 138 139 130 135 77 79 104 131 149
346 345 343 341 338 335 327 314 302 299 309 318 326 332 336 330 283 268 344 218 210 230 252 353 296 340 3 207 160 159 240 323 10 196 145 140 113 119 144 174 170 147 139 148 157
345 344 343 340 337 334 328 314 297 296 308 320 328 336 336 335 163 211 38 70 159 193 208 126 156 303 315 321 200 236 233 253 310 153 124 132 124 106 57 60 130 147 150 154 168
344 343 341 338 336 332 326 315 290 289 305 323 333 343 5 346 252 196 1 41 138 156 171 186 244 287 301 281 246 244 279 176 240 129 116 128 120 115 78 107 126 141 158 165 173
344 343 339 338 336 330 324 313 285 281 302 319 335 348 15 239 202 194 318 23 192 194 181 189 213 233 272 258 279 296 295 101 159 146 144 139 133 167 120 132 138 152 170 177 181
344 341 341 338 335 329 322 311 273 273 296 319 340 10 261 243 186 248 300 280 221 197 201 212 206 216 353 283 321 320 286 135 143 190 156 151 156 170 150 151 153 170 174 188 192
344 342 340 338 335 328 320 300 239 242 273 307 328 26 255 234 257 275 280 261 212 211 230 274 179 98 296 301 28 34 66 223 130 165 150 211 285 160 161 161 168 178 187 193 199
344 342 341 338 334 329 322 252 213 210 247 300 22 330 257 292 250 254 223 197 182 179 212 118 85 51 353 38 102 32 322 286 282 203 144 213 294 131 175 179 175 186 194 201 205
343 341 341 338 335 335 350 125 129 135 152 110 281 285 252 59 306 273 199 182 143 131 141 152 65 110 103 26 139 292 320 249 256 174 200 193 251 108 182 194 194 194 200 205 209
346 342 338 336 336 340 125 117 186 189 203 217 178 276 304 320 340 213 147 132 135 135 181 53 220 244 341 316 327 285 262 264 265 220 194 228 272 336 203 205 205 208 215 214 215
345 343 338 332 331 315 148 218 158 345 296 230 240 273 276 290 308 237 158 163 175 170 140 176 234 117 171 244 248 254 257 262 40 121 207 158 248 306 244 228 217 213 225 225 211
345 340 334 332 326 147 202 202 213 293 277 276 197 222 235 176 221 232 183 146 160 163 177 211 138 209 184 226 277 202 257 150 120 117 65 103 242 300 26 336 240 232 242 251 222
344 338 332 339 307 235 240 171 293 188 296 199 211 234 163 189 246 212 197 172 183 182 166 218 252 175 26 275 254 152 246 98 140 188 152 315 295 269 358 341 230 255 253 244 222
341 332 327 324 273 219 164 349 125 158 220 131 154 146 143 195 128 179 194 139 204 169 189 168 167 230 330 212 212 77 51 26 60 98 173 32 247 292 18 53 29 2 331 256 187
337 328 318 270 222 197 173 124 163 223 237 164 140 160 157 205 135 112 167 119 129 144 179 194 163 248 240 226 114 141 101 71 77 110 167 40 282 231 166 59 300 20 23 88 125
335 322 263 204 210 168 176 176 179 237 336 162 168 168 170 159 168 152 169 152 177 172 190 220 253 260 211 220 103 153 174 265 250 205 16 10 238 332 324 25 298 331 3 143 116
335 321 263 210 189 140 155 195 212 254 245 69 137 145 185 160 170 129 150 167 88 147 167 191 218 204 187 229 195 182 245 238 254 210 42 152 237 62 344 335 292 336 85 158 139
335 317 266 268 182 161 196 201 237 219 330 356 142 171 172 182 164 166 187 190 184 185 172 184 229 201 47 124 244 153 200 47 119 82 242 100 253 262 245 201 218 95 110 135 122
329 302 300 312 173 169 203 228 244 234 317 287 203 197 190 169 172 191 180 183 195 199 199 173 184 77 113 100 61 237 128 165 166 182 226 194 266 264 251 221 194 147 126 90 65
332 222 354 140 150 193 209 231 272 264 228 336 335 192 186 166 185 172 194 185 195 173 197 161 244 120 160 24 153 149 173 69 105 339 255 248 220 202 282 268 219 123 115 99 71
329 158 88 118 176 245 217 213 296 275 250 284 252 228 190 164 166 191 201 241 177 150 173 170 109 80 63 40 192 3 108 176 223 179 110 302 234 17 304 285 227 105 119 109 107
7 49 167 315 204 202 218 256 251 273 264 222 240 219 193 166 172 198 203 179 157 154 161 175 202 150 133 179 171 91 79 95 101 117 179 231 229 18 33 95 80 117 117 120 103
263 145 148 207 296 230 203 269 252 266 265 239 239 179 169 195 214 180 166 147 196 163 105 140 125 209 205 152 119 146 121 131 291 210 154 240 274 32 23 29 61 81 101 110 109
218 134 346 189 213 179 150 276 288 290 241 221 221 222 183 154 168 173 155 134 102 139 108 188 149 128 77 115 101 107 135 164 226 346 250 7 220 26 19 44 73 89 95 93 78
324 332 341 150 155 169 186 234 256 267 243 252 232 358 215 183 182 178 161 171 163 158 137 101 123 132 68 78 113 111 75 101 75 117 280 194 117 61 92 99 82 74 79 75 67
341 276 269 135 158 188 207 224 263 357 251 248 279 295 251 228 208 111 122 118 136 147 135 126 144 156 137 209 179 167 17 332 145 189 263 206 135 141 117 97 79 80 73 70 58